Location: Gull Harbor
(47.1000°N, 122.9000°W)
Time: 22:34:53
(UTC-07:00)

BlueWalker 3 - Pass Details

Date: 08 February 2023
Orbit: 497 x 515 km, 53.2° (Epoch: 23 March)

Event Time Altitude Azimuth Distance (km) Brightness Sun altitude
Rises 20:05:58 0° 296° (WNW) 2,609 6.7 -27.7°
Reaches altitude 10° 20:08:15 10° 288° (WNW) 1,725 5.6 -28.1°
Enters shadow 20:10:40 30° 260° (W) 944 3.8 -28.5°
